Wind_Speed
23 22 23 23 23 23 22 22 21 22 22 22 22 22 22 22 22 22 21 20 19 18 18 17 17 16 16 16 17 16 15 15 15 15 14 14 13 13 13 13 13 13 13 12 12 12 12 12 12
24 24 24 25 25 24 22 23 24 23 23 23 23 23 23 23 23 23 22 21 20 20 20 19 19 18 18 18 18 17 17 17 16 16 15 15 15 14 14 14 14 13 14 14 14 14 14 13 13
25 25 26 26 26 25 24 24 24 24 24 23 24 24 25 24 24 24 23 23 22 22 22 21 21 20 20 19 19 19 19 19 18 18 17 17 17 16 16 15 15 15 15 15 15 15 15 15 15
27 27 28 27 26 25 25 24 24 25 24 24 25 25 25 25 25 25 25 25 25 24 24 23 23 22 22 21 21 20 20 20 20 20 19 19 19 18 18 18 18 17 17 16 17 17 17 17 17
28 28 28 28 27 26 26 26 26 26 26 25 25 26 26 26 25 26 27 27 26 26 25 25 24 24 23 23 23 22 22 22 22 22 21 21 21 21 20 20 20 20 19 19 19 19 19 19 19
29 28 29 28 28 26 26 27 27 27 28 27 27 27 27 26 26 27 28 28 28 27 27 27 26 26 25 25 24 23 23 23 23 23 23 23 23 23 23 23 23 22 22 22 21 21 21 21 21
29 29 29 29 28 27 27 28 28 28 29 28 28 27 27 27 28 28 29 29 29 28 27 27 27 27 26 26 25 25 25 25 25 25 25 25 25 25 25 25 25 25 24 24 24 24 24 23 22
31 31 30 29 29 29 29 29 29 30 29 29 29 28 28 27 28 28 29 29 30 29 28 28 28 28 28 27 26 26 27 26 26 26 26 26 26 26 26 26 26 26 26 26 26 26 25 25 25
32 32 31 30 30 30 29 30 30 30 30 30 30 29 28 28 28 28 29 29 30 30 29 29 29 29 29 29 29 29 28 28 28 28 27 27 27 27 27 27 27 28 28 28 27 27 27 27 28
33 32 31 32 32 31 31 30 31 30 31 31 31 31 30 29 29 29 30 30 30 31 30 31 30 31 31 31 31 31 30 30 30 30 29 29 29 29 29 29 29 29 29 29 29 29 29 29 30
33 33 32 32 33 33 33 32 32 32 31 31 31 32 31 31 31 31 31 31 31 32 32 32 32 31 32 32 32 32 32 31 31 31 31 30 30 30 31 31 31 30 31 31 31 31 31 31 32
34 34 34 34 34 34 33 34 33 34 33 32 33 33 32 32 33 32 32 32 32 33 33 34 34 33 33 33 33 33 33 34 33 33 32 32 32 32 32 31 32 32 32 32 32 33 33 33 33
35 35 35 36 36 36 34 35 35 35 34 34 34 34 33 33 33 33 34 33 33 33 34 35 36 35 34 33 33 34 34 35 35 35 35 35 35 34 34 34 33 34 34 34 34 35 35 35 35
36 36 35 36 37 37 36 35 36 34 34 35 35 35 34 33 33 33 34 34 34 34 35 36 36 36 35 34 34 34 35 36 36 37 38 38 38 37 36 35 35 35 36 36 37 37 36 36 37
37 37 37 37 36 36 37 37 36 36 36 36 36 36 35 35 34 35 35 35 35 35 36 37 37 37 37 37 36 36 36 37 38 38 39 39 39 39 39 38 37 37 37 38 38 38 38 38 39
36 37 38 38 37 37 37 37 36 35 36 36 37 37 36 36 36 36 37 36 36 36 37 37 38 38 38 38 37 37 37 37 38 39 39 40 41 41 40 40 39 39 39 39 38 39 39 40 40
35 35 36 37 37 37 38 38 37 37 37 37 37 37 37 37 38 37 38 38 38 38 38 38 39 39 39 39 40 40 39 39 39 39 40 40 41 41 41 40 40 39 39 39 39 39 40 40 41
34 34 35 35 35 37 38 37 37 37 37 37 37 37 37 37 37 38 38 39 39 39 39 39 40 40 39 40 41 42 41 40 40 40 40 40 41 41 41 41 41 41 40 41 40 41 41 41 42
32 33 34 35 35 36 36 36 36 36 37 37 37 37 37 37 37 38 38 39 39 40 40 40 40 40 40 41 41 41 42 42 42 41 41 41 41 41 42 42 41 42 42 42 42 42 42 43 43
31 32 33 34 34 35 36 36 35 35 36 36 36 37 37 37 37 37 38 39 40 40 40 40 41 41 41 41 41 41 41 42 43 43 42 42 42 42 43 43 43 43 43 44 44 44 44 44 44
30 31 32 33 34 35 36 36 35 34 35 35 36 36 37 37 38 38 39 39 40 41 41 40 41 41 41 41 41 42 42 43 43 43 44 43 43 43 43 43 43 44 44 45 45 45 44 44 45
29 29 30 31 33 33 34 36 33 34 34 34 35 36 36 37 37 38 38 39 40 40 40 40 41 41 41 42 42 43 43 43 43 43 44 44 45 45 44 45 44 45 45 45 45 45 46 46 47
29 29 30 31 32 33 33 36 32 33 33 33 34 35 36 36 37 38 38 38 39 40 40 40 41 41 41 42 43 44 44 43 43 44 43 45 46 47 46 46 46 46 46 46 46 46 47 47 47
28 29 30 31 32 34 32 34 33 32 32 32 33 33 34 35 36 37 37 38 38 40 41 41 41 42 42 42 42 42 44 44 44 44 45 45 46 46 47 47 46 46 46 47 48 48 48 48 48
28 28 30 31 32 33 32 33 33 31 31 32 32 33 33 34 35 37 37 37 37 39 40 41 42 42 42 42 42 42 42 44 45 45 45 45 45 45 45 45 45 45 45 46 47 47 48 48 48
27 28 29 30 31 32 32 33 32 31 31 32 32 33 33 35 36 36 36 36 37 38 39 39 41 41 41 42 42 41 42 43 44 44 44 43 43 43 43 43 43 44 44 45 45 47 47 48 48
26 27 28 29 30 31 32 32 32 31 31 32 32 33 33 34 35 36 36 36 36 37 38 39 39 40 40 41 42 41 40 40 41 41 41 41 41 42 43 43 44 44 44 44 45 46 46 47 47
27 27 28 28 30 31 32 32 32 31 32 32 32 33 33 34 34 34 35 35 35 36 37 38 38 38 39 40 40 40 40 40 40 40 40 40 41 41 42 42 42 43 43 44 44 44 45 45 45
26 27 28 29 30 31 31 30 30 31 31 32 32 33 33 33 32 33 33 34 34 34 35 36 36 37 38 38 38 38 38 39 39 39 39 40 40 41 41 42 42 42 43 43 43 43 43 43 43
26 27 27 29 29 31 31 30 29 30 31 32 32 33 33 32 32 32 32 32 33 33 34 35 35 35 36 36 36 36 36 37 37 38 38 39 39 40 41 41 42 41 41 41 41 41 41 41 42
Wind_Direction
243 243 242 242 242 242 244 245 246 248 248 249 250 250 248 247 247 249 249 248 246 246 246 247 249 251 252 252 252 254 251 252 255 256 256 257 258 256 256 255 255 256 257 258 259 260 261 260 259
244 243 243 242 244 244 245 246 245 246 247 248 250 250 249 247 248 250 249 248 248 247 247 247 249 251 253 252 253 253 253 255 257 257 259 260 258 260 261 259 256 258 260 261 263 262 263 264 262
243 242 242 241 242 245 245 247 248 246 247 249 250 249 248 249 248 248 248 248 248 247 248 248 249 251 253 253 253 255 256 257 256 257 259 260 260 260 260 260 258 260 262 262 264 265 266 265 264
245 243 243 241 241 244 246 248 250 249 249 250 249 249 249 250 249 248 247 248 248 249 249 249 249 251 253 254 254 255 256 256 257 257 258 260 260 260 259 260 260 261 263 263 265 267 267 266 266
244 243 244 244 244 244 246 247 250 251 251 250 250 250 250 251 250 250 249 249 250 250 249 250 249 250 251 254 255 254 256 256 258 257 258 259 260 260 259 259 261 263 264 265 267 267 267 267 267
243 244 245 246 246 245 246 248 249 251 252 252 252 252 251 252 252 251 251 250 251 251 250 250 250 250 251 253 254 254 256 256 257 258 258 259 260 260 260 262 263 264 265 266 266 267 267 267 267
244 244 245 246 246 246 245 248 249 251 253 253 253 254 254 253 252 251 251 251 251 252 251 250 251 250 251 254 255 255 256 257 258 260 260 260 260 261 261 262 264 265 265 266 266 266 266 267 267
245 246 246 246 247 247 246 248 251 252 253 254 254 254 254 254 254 252 251 251 250 251 250 248 250 251 252 253 255 257 257 258 260 262 261 262 262 262 262 263 263 264 265 265 266 266 266 267 268
246 246 247 246 247 248 248 248 251 252 253 254 256 256 256 255 253 253 252 251 251 250 250 249 250 252 253 254 256 258 258 258 260 261 264 264 264 264 264 264 264 264 264 265 266 266 267 268 269
248 247 247 248 249 250 250 250 252 253 254 254 255 256 257 255 253 253 252 251 250 250 250 250 250 252 253 254 256 258 259 260 260 261 263 263 264 264 264 264 264 265 265 265 266 267 268 269 270
250 249 247 249 250 251 251 251 252 253 254 255 255 256 257 257 254 253 252 251 250 250 250 251 251 252 254 256 256 257 258 259 261 261 262 263 264 264 264 264 264 265 265 265 266 267 268 269 270
251 250 249 249 250 251 253 253 253 253 254 255 256 257 257 257 256 253 251 251 250 251 252 251 252 253 255 258 258 258 259 260 261 262 262 263 264 266 265 264 264 265 265 266 267 267 268 269 270
252 251 252 251 251 253 253 254 255 254 255 255 256 256 257 257 256 254 252 252 252 252 252 252 252 253 254 256 259 259 260 260 261 261 261 263 263 265 265 265 264 265 266 266 266 267 268 270 271
252 252 252 251 251 252 252 253 255 255 256 256 256 256 257 257 255 254 253 253 252 253 253 252 250 253 254 255 257 259 260 261 261 262 262 263 263 264 264 265 264 265 266 266 267 268 269 270 270
254 253 253 253 252 252 254 254 255 255 255 255 255 256 256 256 255 254 254 254 254 253 253 254 252 253 254 256 259 260 261 261 263 262 263 264 264 264 265 266 267 267 267 267 268 269 270 270 271
255 254 255 254 254 254 255 255 255 256 255 255 255 256 255 254 255 255 254 254 255 255 255 255 255 256 257 257 258 260 261 262 262 264 264 265 265 265 265 265 267 268 269 269 268 270 270 271 272
256 258 257 256 255 255 256 257 257 257 257 257 257 256 256 255 255 256 256 255 256 256 256 255 255 256 257 257 258 259 261 263 264 265 265 265 266 265 265 265 266 267 268 268 269 271 270 271 271
258 258 258 257 258 257 258 258 258 258 259 259 258 258 258 257 257 257 257 256 256 257 257 257 257 257 257 258 259 260 262 264 265 265 265 265 265 265 265 265 266 266 267 268 270 270 270 271 272
260 260 258 257 258 258 259 259 258 259 258 259 259 259 259 258 258 259 258 258 257 257 258 258 258 258 258 259 260 262 263 264 266 266 267 267 266 265 265 266 267 267 267 268 270 272 271 271 273
260 260 259 258 258 260 260 259 258 259 259 259 259 259 259 260 259 259 259 260 259 258 258 259 259 259 260 260 260 261 262 264 265 266 266 267 268 267 266 266 267 268 269 269 270 272 273 273 273
259 260 260 260 261 261 262 260 259 259 260 259 259 260 261 261 261 261 261 261 261 259 258 258 259 259 259 260 261 262 262 264 266 266 266 266 267 267 267 267 268 269 270 271 271 271 272 273 275
262 260 260 261 262 263 264 264 260 261 260 260 260 261 262 262 262 263 263 263 262 262 259 260 261 260 260 260 261 262 262 263 265 267 267 267 267 267 268 268 268 269 270 270 270 271 272 273 275
264 262 261 262 263 264 264 266 263 262 261 262 262 263 263 263 263 263 263 264 264 263 261 262 263 264 263 263 263 263 263 264 266 266 267 267 268 268 268 269 269 270 270 270 270 271 272 274 274
264 263 263 263 264 264 264 266 264 262 263 264 264 264 264 264 264 264 264 265 264 263 263 264 265 266 266 265 264 264 264 265 266 266 266 267 267 267 268 269 269 270 270 270 271 272 272 273 274
262 262 262 264 265 266 266 266 265 264 264 265 266 266 265 264 264 265 266 265 265 264 264 265 265 266 266 266 265 265 266 266 266 266 267 267 267 267 268 268 268 269 270 271 272 272 273 275 275
263 262 263 266 268 269 268 269 267 266 266 266 266 266 266 265 264 265 266 267 266 264 264 264 265 265 266 267 267 267 268 268 267 267 267 267 267 267 267 267 268 270 271 273 273 274 275 276 276
264 264 264 265 266 268 269 270 269 267 268 268 268 267 266 266 265 265 266 268 267 266 265 264 265 266 267 268 268 267 267 268 267 266 265 265 266 266 267 267 269 270 272 273 275 276 277 277 278
265 265 265 265 266 268 270 271 272 269 270 271 271 270 269 269 267 266 267 269 270 268 267 267 267 268 268 268 268 268 266 266 266 266 266 265 266 266 267 268 269 272 274 275 276 277 278 279 279
266 264 264 265 266 269 272 273 273 274 274 274 273 273 272 271 268 267 269 271 271 270 270 270 269 268 268 268 268 269 268 267 267 267 267 267 267 268 269 269 270 272 274 275 276 278 279 280 281
268 267 266 265 266 267 269 272 274 274 274 274 273 273 273 271 268 268 269 271 271 272 271 270 269 269 268 268 268 269 269 268 267 266 267 267 268 269 271 271 272 273 274 276 277 278 280 281 282
Height
5801 5803 5805 5807 5809 5810 5812 5814 5814 5816 5817 5818 5820 5821 5822 5823 5825 5828 5827 5828 5830 5831 5832 5833 5834 5835 5836 5837 5837 5838 5839 5839 5840 5841 5842 5842 5842 5842 5843 5844 5844 5845 5845 5846 5846 5846 5847 5847 5847
5797 5799 5801 5803 5804 5806 5808 5809 5810 5811 5813 5815 5816 5817 5818 5819 5820 5822 5823 5824 5826 5827 5829 5830 5831 5832 5833 5833 5834 5835 5836 5837 5838 5838 5839 5839 5840 5840 5841 5841 5842 5843 5843 5843 5844 5844 5844 5845 5845
5793 5794 5797 5798 5800 5802 5804 5805 5806 5807 5809 5811 5812 5813 5814 5815 5817 5818 5819 5820 5822 5824 5825 5826 5827 5828 5830 5830 5831 5832 5833 5834 5835 5835 5836 5837 5837 5838 5838 5839 5839 5840 5841 5841 5841 5841 5842 5842 5842
5788 5790 5792 5794 5796 5798 5799 5800 5802 5803 5804 5806 5807 5808 5809 5811 5813 5814 5815 5816 5818 5820 5821 5822 5823 5825 5826 5826 5827 5829 5829 5830 5831 5832 5833 5833 5834 5834 5835 5836 5836 5837 5838 5838 5838 5839 5839 5839 5840
5783 5785 5787 5789 5791 5793 5794 5796 5797 5798 5800 5801 5803 5804 5805 5807 5808 5809 5811 5812 5813 5815 5817 5818 5819 5820 5821 5822 5823 5824 5825 5826 5827 5828 5829 5830 5830 5831 5831 5832 5833 5834 5834 5834 5835 5835 5835 5836 5836
5778 5780 5782 5784 5786 5788 5790 5791 5792 5794 5795 5797 5798 5799 5800 5802 5803 5804 5805 5807 5809 5811 5812 5813 5814 5816 5817 5818 5819 5820 5821 5822 5823 5824 5825 5825 5826 5827 5828 5828 5829 5830 5830 5830 5831 5831 5831 5831 5832
5773 5775 5776 5779 5780 5783 5785 5786 5787 5788 5790 5791 5793 5795 5795 5797 5798 5799 5800 5802 5803 5805 5807 5808 5809 5811 5812 5813 5814 5815 5816 5817 5818 5819 5820 5821 5821 5822 5823 5824 5824 5825 5825 5826 5826 5827 5827 5827 5828
5767 5770 5771 5773 5775 5777 5779 5780 5782 5783 5784 5786 5787 5789 5790 5792 5793 5794 5795 5796 5798 5800 5802 5803 5804 5806 5807 5808 5809 5810 5812 5813 5814 5814 5815 5816 5817 5817 5818 5818 5819 5820 5820 5821 5821 5822 5822 5822 5823
5761 5764 5765 5767 5769 5771 5773 5775 5776 5777 5779 5780 5781 5783 5785 5786 5787 5788 5789 5791 5793 5794 5796 5798 5799 5801 5802 5803 5804 5805 5806 5807 5808 5809 5810 5811 5811 5812 5812 5813 5813 5814 5815 5816 5816 5816 5817 5817 5817
5754 5757 5760 5762 5763 5765 5767 5769 5770 5772 5773 5775 5776 5777 5778 5779 5781 5782 5783 5785 5787 5788 5790 5792 5794 5795 5796 5797 5799 5800 5801 5802 5803 5803 5804 5805 5806 5806 5807 5807 5808 5808 5809 5810 5810 5811 5811 5811 5811
5747 5751 5754 5755 5757 5758 5760 5762 5764 5765 5767 5769 5770 5771 5772 5773 5774 5776 5777 5778 5780 5782 5784 5786 5787 5789 5790 5791 5792 5793 5794 5795 5796 5797 5798 5799 5799 5800 5800 5801 5802 5802 5803 5804 5804 5805 5805 5805 5805
5741 5744 5746 5748 5749 5751 5753 5755 5757 5759 5761 5762 5763 5764 5766 5767 5768 5769 5771 5772 5774 5776 5777 5779 5781 5782 5783 5784 5786 5787 5788 5789 5790 5791 5792 5792 5793 5793 5794 5794 5795 5796 5796 5797 5798 5798 5798 5798 5798
5733 5736 5738 5740 5742 5744 5746 5747 5750 5752 5754 5754 5755 5757 5759 5760 5761 5762 5764 5766 5767 5769 5771 5772 5773 5775 5776 5777 5778 5779 5781 5782 5783 5784 5785 5785 5786 5787 5787 5788 5788 5789 5790 5790 5791 5791 5791 5791 5791
5726 5728 5730 5732 5734 5736 5738 5739 5742 5745 5745 5746 5748 5749 5752 5753 5754 5755 5757 5759 5760 5762 5763 5764 5766 5767 5769 5770 5771 5772 5773 5774 5775 5776 5777 5778 5778 5779 5780 5780 5781 5782 5782 5783 5783 5783 5783 5783 5783
5717 5720 5722 5724 5726 5728 5729 5732 5734 5737 5737 5738 5740 5742 5744 5745 5746 5748 5750 5751 5753 5754 5756 5757 5758 5760 5761 5763 5764 5765 5766 5767 5768 5768 5769 5770 5771 5771 5772 5773 5773 5774 5774 5775 5775 5775 5775 5775 5775
5709 5711 5714 5717 5718 5719 5722 5724 5726 5727 5728 5730 5732 5733 5735 5737 5738 5740 5742 5743 5745 5746 5748 5749 5751 5752 5753 5755 5756 5757 5758 5759 5760 5760 5761 5762 5762 5763 5764 5765 5765 5766 5766 5766 5766 5766 5767 5766 5766
5701 5703 5706 5708 5709 5711 5712 5715 5718 5718 5720 5721 5723 5725 5727 5728 5730 5732 5733 5735 5737 5738 5739 5741 5742 5744 5745 5747 5748 5749 5750 5751 5751 5752 5753 5753 5754 5754 5755 5756 5757 5757 5757 5757 5757 5758 5758 5758 5757
5694 5696 5697 5699 5701 5702 5703 5706 5709 5710 5711 5713 5715 5716 5718 5720 5722 5723 5724 5726 5727 5729 5730 5732 5733 5735 5737 5738 5739 5740 5741 5742 5742 5743 5744 5744 5745 5745 5746 5747 5747 5748 5748 5748 5748 5749 5749 5749 5748
5686 5687 5689 5691 5692 5693 5695 5697 5700 5701 5703 5705 5706 5708 5709 5711 5713 5714 5715 5717 5718 5720 5722 5723 5725 5726 5728 5729 5731 5731 5732 5732 5733 5734 5735 5735 5736 5736 5737 5737 5738 5738 5739 5739 5739 5739 5739 5739 5738
5678 5679 5681 5683 5684 5685 5686 5688 5691 5693 5694 5696 5698 5699 5700 5702 5704 5705 5706 5707 5709 5711 5712 5714 5715 5717 5719 5720 5721 5722 5723 5723 5724 5725 5725 5726 5726 5726 5727 5728 5728 5728 5729 5730 5729 5729 5729 5728 5728
5670 5672 5674 5675 5675 5676 5677 5680 5683 5685 5686 5688 5689 5690 5692 5693 5695 5696 5697 5698 5699 5701 5703 5704 5706 5707 5709 5710 5711 5713 5713 5714 5714 5715 5715 5716 5716 5716 5717 5718 5718 5719 5719 5719 5719 5719 5719 5718 5718
5663 5665 5666 5666 5667 5668 5670 5670 5676 5677 5678 5679 5681 5682 5683 5685 5686 5687 5688 5689 5690 5691 5693 5694 5695 5697 5699 5700 5701 5702 5703 5704 5704 5704 5705 5705 5705 5706 5707 5707 5708 5708 5708 5708 5708 5708 5708 5708 5707
5656 5658 5658 5659 5659 5660 5662 5661 5667 5668 5670 5672 5673 5674 5674 5675 5677 5678 5679 5680 5681 5682 5683 5684 5685 5686 5688 5689 5690 5691 5692 5693 5693 5694 5694 5694 5695 5695 5696 5696 5696 5697 5697 5697 5697 5697 5696 5696 5696
5649 5650 5651 5651 5650 5652 5655 5654 5657 5660 5662 5663 5664 5665 5666 5666 5667 5668 5669 5670 5671 5672 5673 5675 5676 5676 5677 5678 5679 5680 5681 5681 5682 5682 5683 5683 5683 5684 5684 5685 5685 5685 5685 5686 5685 5685 5684 5684 5683
5642 5643 5644 5643 5643 5645 5648 5646 5650 5653 5654 5655 5656 5656 5657 5658 5658 5659 5660 5661 5662 5663 5663 5664 5666 5666 5667 5667 5668 5668 5669 5669 5670 5671 5671 5671 5672 5672 5672 5673 5673 5673 5673 5673 5673 5673 5672 5672 5671
5636 5637 5638 5638 5637 5638 5639 5639 5643 5645 5646 5646 5647 5648 5648 5649 5649 5650 5650 5651 5652 5653 5653 5654 5655 5656 5656 5656 5657 5657 5657 5658 5659 5659 5659 5660 5660 5660 5661 5661 5662 5662 5662 5662 5661 5661 5660 5659 5659
5629 5630 5631 5631 5630 5630 5631 5633 5635 5637 5638 5638 5638 5639 5639 5640 5641 5641 5641 5642 5642 5643 5643 5644 5645 5645 5646 5646 5646 5646 5646 5647 5648 5648 5648 5649 5649 5650 5650 5651 5651 5651 5651 5651 5650 5650 5649 5648 5647
5623 5623 5624 5623 5623 5623 5625 5626 5628 5629 5629 5630 5630 5630 5631 5631 5632 5632 5632 5632 5633 5633 5633 5634 5634 5635 5635 5635 5635 5635 5636 5636 5637 5637 5638 5638 5639 5639 5639 5640 5640 5640 5640 5640 5639 5638 5637 5636 5635
5617 5617 5617 5617 5617 5617 5617 5622 5620 5621 5621 5621 5622 5622 5622 5623 5623 5623 5623 5623 5623 5623 5623 5624 5624 5625 5625 5625 5625 5625 5625 5626 5626 5627 5627 5628 5628 5629 5629 5629 5629 5629 5629 5628 5628 5627 5626 5625 5623
5610 5610 5611 5611 5611 5610 5610 5615 5613 5613 5613 5613 5613 5613 5614 5614 5614 5615 5615 5615 5614 5614 5614 5614 5615 5615 5615 5615 5615 5615 5615 5615 5616 5616 5617 5617 5618 5618 5618 5618 5618 5618 5618 5617 5617 5616 5615 5613 5612